Ukiah, CA

9:34 PM PDT on June 24, 2018 (GMT -0700)
Ukiah Municipal

Weather History for KUKI - October, 2017

Change the Weather History Date:

Tuesday, October 10, 2017

  Actual Average Record
Temperature  
Mean Temperature 59 °F 62 °F  
Max Temperature 81 °F 80 °F 99 °F (1991)
Min Temperature 37 °F 44 °F 35 °F (1949)
Degree Days  
Heating Degree Days 6 4  
Month to date heating degree days 30  
Since 1 July heating degree days 63  
Cooling Degree Days 0 1  
Month to date cooling degree days 15  
Year to date cooling degree days 828  
Growing Degree Days 8 (Base 50)    
Moisture  
Dew Point 32 °F    
Average Humidity 38    
Maximum Humidity 55    
Minimum Humidity 21    
Precipitation  
Precipitation 0.00 in 0.04 in 1.82 in (1957)
Month to date precipitation 0.00 0.15  
Year to date precipitation 34.54 24.12  
Sea Level Pressure  
Sea Level Pressure 29.93 in    
Wind  
Wind Speed 1 mph (SW)    
Max Wind Speed 13 mph    
Max Gust Speed 17 mph    
Visibility 4 miles    
Events      
T = Trace of Precipitation, MM = Missing Value Source: NWS Daily Summary

Daily Weather History Graph

Daily Weather History Graph

Search for Another Location

Airport or City:

Astronomy

Oct. 10, 2017 Rise Set
Actual Time 7:17 AM PDT 6:40 PM PDT
Civil Twilight 6:51 AM PDT 7:07 PM PDT
Nautical Twilight 6:20 AM PDT 7:38 PM PDT
Astronomical Twilight 5:49 AM PDT 8:09 PM PDT
Moon 10:52 PM PDT (10/10) 12:37 PM PDT (10/10)
Length of Visible Light 12h 16m
Length of Day
11h 23m
Waning Gibbous, 70% of the Moon is Illuminated
Oct 10
Waning Gibbous
Oct 12
Last Quarter
Oct 19
New
Oct 27
First Quarter
Nov 3
Full

Hourly Weather History & Observations

Time (PDT) Temp. Dew Point Humidity Pressure Visibility Wind Dir Wind Speed Gust Speed Precip Events Conditions
12:56 AM 48.9 °F 30.9 °F 50% 29.95 in 4.0 mi Calm Calm - N/A   Haze
1:56 AM 44.1 °F 34.0 °F 68% 29.96 in 4.0 mi Calm Calm - N/A   Haze
2:56 AM 44.1 °F 30.9 °F 60% 29.96 in 4.0 mi Calm Calm - N/A   Haze
3:56 AM 42.1 °F 30.9 °F 65% 29.95 in 4.0 mi Calm Calm - N/A   Haze
4:56 AM 39.9 °F 34.0 °F 79% 29.96 in 4.0 mi Calm Calm - N/A   Haze
5:56 AM 43.0 °F 30.9 °F 62% 29.96 in 4.0 mi Calm Calm - N/A   Haze
6:56 AM 39.0 °F 32.0 °F 76% 29.97 in 4.0 mi Calm Calm - N/A   Haze
7:29 AM 41.0 °F 30.9 °F 67% 29.97 in 2.5 mi Calm Calm - N/A   Haze
7:56 AM 39.0 °F 32.0 °F 76% 29.97 in 2.0 mi Calm Calm - N/A   Haze
8:56 AM 44.1 °F 32.0 °F 63% 29.98 in 2.0 mi Calm Calm - N/A   Haze
9:28 AM 48.9 °F 30.9 °F 50% 29.99 in 1.8 mi Calm Calm - N/A   Haze
9:56 AM 50.0 °F 33.1 °F 52% 29.97 in 1.8 mi Calm Calm - N/A   Haze
10:12 AM 53.1 °F 32.0 °F 45% 29.98 in 1.5 mi Calm Calm - N/A   Haze
10:44 AM 55.0 °F 32.0 °F 42% 29.97 in 1.5 mi Calm Calm - N/A   Haze
10:56 AM 57.0 °F 30.9 °F 37% 29.95 in 1.5 mi Calm Calm - N/A   Haze
11:56 AM 64.0 °F 30.0 °F 28% 29.93 in 1.0 mi Calm Calm - N/A   Haze
12:56 PM 70.0 °F 32.0 °F 25% 29.92 in 1.2 mi Calm Calm - N/A   Haze
1:56 PM 75.9 °F 30.9 °F 19% 29.89 in 1.2 mi SSE 8.1 mph - N/A   Haze
2:56 PM 77.0 °F 30.9 °F 19% 29.86 in 1.5 mi Variable 6.9 mph - N/A   Haze
3:03 PM 78.1 °F 27.0 °F 15% 29.88 in 3.0 mi WSW 6.9 mph - N/A   Haze
3:13 PM 78.1 °F 28.0 °F 16% 29.88 in 5.0 mi Variable 6.9 mph - N/A   Haze
3:56 PM 77.0 °F 28.9 °F 17% 29.87 in 6.0 mi SW 8.1 mph - N/A   Haze
4:56 PM 75.9 °F 30.9 °F 19% 29.85 in 8.0 mi Variable 6.9 mph - N/A   Clear
6:56 PM 66.0 °F 37.0 °F 34% 29.87 in 7.0 mi ENE 6.9 mph - N/A   Clear
7:56 PM 61.0 °F 36.0 °F 39% 29.89 in 8.0 mi Calm Calm - N/A   Clear
8:56 PM 59.0 °F 36.0 °F 42% 29.89 in 8.0 mi North 3.5 mph - N/A   Clear
9:56 PM 55.9 °F 36.0 °F 47% 29.90 in 8.0 mi Calm Calm - N/A   Clear
10:56 PM 53.1 °F 35.1 °F 50% 29.90 in 7.0 mi SW 3.5 mph - N/A   Clear
11:56 PM 50.0 °F 37.0 °F 61% 29.90 in 7.0 mi Calm Calm - N/A   Clear